Overview Statistics Trail Chart Weather Telemetry Raw packets
 

This is the latest recevied weather packets stored in our database for station/object VA2EYZ-13. If no packets are shown the sender has not sent any weather packets the latest 10 day(s).

<< 3 4 5 6 7 8 9 >>
Time Temp. Humidity Pressure Rain* Wind** Luminosity Snow
1788462847 26.11° C 74% 1010.2 hPa - - - -
1788462237 26.11° C 74% 1010 hPa - - - -
1788461934 25° C 80% 1010 hPa - - - -
1788460635 25° C 81% 1010.6 hPa - - - -
1788459436 24.44° C 86% 1010.6 hPa - - - -
1788458424 23.33° C 82% 1010.6 hPa - - - -
1788458031 23.89° C 81% 1010.6 hPa - - - -
1788456483 25° C 76% 1010.6 hPa - - - -
1788456095 25° C 74% 1010 hPa - - - -
1788455335 25.56° C 73% 1010 hPa - - - -
1788455030 25° C 72% 1010.9 hPa - - - -
1788454003 25° C 80% 1010.9 hPa - - - -
1788453665 25° C 79% 1010.9 hPa - - - -
1788452973 24.44° C 79% 1010.9 hPa - - - -
1788452652 24.44° C 80% 1010 hPa - - - -
1788452315 24.44° C 80% 1010 hPa - - - -
1788451336 24.44° C 78% 1011 hPa - - - -
1788451016 24.44° C 80% 1011 hPa - - - -
1788450291 23.89° C 82% 1011.3 hPa - - - -
1788449902 23.89° C 83% 1011.3 hPa - - - -
1788449030 23.33° C 83% 1011 hPa - - - -
1788447692 22.22° C 90% 1011.6 hPa - - - -
1788446585 22.22° C 92% 1011.6 hPa - - - -
1788444958 21.67° C 92% 1011 hPa - - - -
1788444230 20.56° C 92% 1011.5 hPa - - - -

* Rain since midnight (hover to see other rain measurements)
** Current wind speed in m/s (hover to see current wind gust speed)